Racecast

Cedar Ridge Invitational

Branson High School · 5000m · Girls · Varsity High School Girls · 2025-10-11 · MO

Course difficulty: +0.009

Race-day weather: 64°F · wind 14 mph · humidity 85%

View full meet →

Team scores

Place Team Points 12345 67
1 Republic (MO) 46 3 5 9 13 16 19
2 Glendale (MO) 76 1 8 12 27 28 31 33
3 Lighthouse Christian Athletics (MO) 82 4 7 17 20 34 39 41
4 Ozark (MO) 83 6 14 18 21 24 25 26
5 Nixa (MO) 95 10 11 22 23 29 30 32
6 Branson (MO) 125 2 15 35 36 37 38 40

As scored by the meet.

Results

Place Athlete Grade School Time Rating Points
1 Danaka Davenport 11 Glendale (CA) 1 19:28.4 127.5 1
2 Alexis Carter 10 Branson (MO) 1 20:22.5 121.9 2
3 Brylie Harris 10 Republic (MO) 1 20:53.3 118.9 3
4 Hannah Marcum 11 Lighthouse Christian Athletics (MO) 1 21:03.1 SR 118.0 4
5 Zoey Johns 10 Republic (MO) 2 21:13.9 117.0 5
6 Kira Cantrell 9 Ozark (MO) 1 21:45.2 114.2 6
7 Ella Marcum 10 Lighthouse Christian Athletics (MO) 2 22:00.7 PR 112.8 7
8 Grace Burton 11 Glendale (CA) 2 22:04.3 SR 112.5 8
9 Catherine Wilson 11 Republic (MO) 3 22:09.7 112.1 9
10 Raelee Hewitt 9 Nixa (MO) 1 22:10.4 112.0 10
11 Mackinzie Harris 12 Nixa (MO) 2 22:12.1 111.8 11
12 Callie Goings 10 Glendale (CA) 3 22:22.6 111.0 12
13 Peyton Bodoin 9 Republic (MO) 4 22:25.4 110.7 13
14 Aliyah Wells 9 Ozark (MO) 2 22:25.8 110.7 14
15 Madeline Harr 12 Branson (MO) 2 22:28.6 PR 110.5 15
16 Malori Koskovich 9 Republic (MO) 5 22:35.5 109.9 16
17 Adelyn Asbury 9 Blue Eye (MO) 1 22:37.6 PR 109.8
18 Ruth Millsap 9 Lighthouse Christian Athletics (MO) 3 22:41.4 109.4 17
19 Katie Hartgraves 11 Ozark (MO) 3 22:54.8 PR 108.4 18
20 Jovi Kirby 10 Republic (MO) 6 23:08.3 107.3 19
21 Julianna McCool 10 Lighthouse Christian Athletics (MO) 4 23:12.3 107.0 20
22 Addison Crum 10 Ozark (MO) 4 23:15 PR 106.8 21
23 Callie Walker 9 Nixa (MO) 3 23:21.6 106.3 22
24 Karah Sackman 10 Nixa (MO) 4 23:22.7 106.2 23
25 Paige Dennis 9 Ozark (MO) 5 23:23.4 106.2 24
26 Finley Bivens 9 Ozark (MO) 6 23:28.1 PR 105.8 25
27 Addelyn Kitchin 10 Ozark (MO) 7 23:59.8 103.5 26
28 Braylee Smith 9 Glendale (CA) 4 24:02.9 PR 103.3 27
29 Tatum Bauer 12 Glendale (CA) 5 24:02.9 SR 103.3 28
30 Hope Garrison 9 Nixa (MO) 5 24:20 102.1 29
31 Molly Hill 10 Nixa (MO) 6 24:20.3 102.0 30
32 Adelyn Letterman 12 Glendale (CA) 6 24:21.4 SR 101.9 31
33 Emma Hurst 10 Nixa (MO) 7 24:21.7 32
34 Grace Rauch 9 Nixa (MO) 8 24:21.8 101.9
35 Cadence Reynolds 9 Nixa (MO) 9 24:39.2 100.7
36 Meliah Copley 12 Nixa (MO) 10 24:39.4 100.7
37 Lily Student 12 Glendale (CA) 7 24:53.3 PR 99.8 33
38 Daphne Clevenger 9 Lighthouse Christian Athletics (MO) 5 25:06.6 PR 98.9 34
39 Grace Johnson 11 Reeds Spring (MO) 1 25:14.7 98.4
40 Marlett Rosales herrera 9 Branson (MO) 3 25:23 97.8 35
41 Karsyn Schroll 11 Branson (MO) 4 25:38.9 96.8 36
42 Brooklynn Mulnik 12 Branson (MO) 5 25:43.3 96.5 37
43 Olivia Mulnik 9 Branson (MO) 6 26:03.3 PR 95.3 38
44 Catherine Bassinger 12 Lighthouse Christian Athletics (MO) 6 26:03.5 95.3 39
45 Addison Lee 11 Glendale (CA) 8 26:28 93.8
46 Julieth Ortega Bonilla 12 Branson (MO) 7 27:12 91.3 40
47 Claire Ross 11 Reeds Spring (MO) 2 27:26.3 90.5
48 Lucy Aguirre 11 Glendale (CA) 9 28:20 87.6
49 Isabella Williams 12 Glendale (CA) 10 28:49 86.2
50 Kayley Baxter 10 Lighthouse Christian Athletics (MO) 7 29:42.1 PR 83.6 41
51 Zoey Harbin 11 Lighthouse Christian Athletics (MO) 8 30:50.8 80.5
Something wrong on this page? Report it →